Location: Bay Creek Structure Number 5 Dam
(37.4851°N, 88.6884°W)
Time: 00:30:59
(UTC+00:00)

Cosmos 2058 Rocket - Pass Details

Date: 13 October 2019
Orbit: 611 x 638 km, 82.5° (Epoch: 17 November)

Event Time Altitude Azimuth Distance (km) Brightness Sun altitude
Rises 23:44:55 0° 154° (SSE) 2,876 6.3 -5.6°
Reaches altitude 10° 23:47:30 10° 140° (SE) 1,971 5.3 -6.1°
Maximum altitude 23:50:54 23° 89° (E) 1,333 4.2 -6.8°
Drops below altitude 10° 23:54:17 10° 37° (NE) 1,975 5.3 -7.5°
Sets 23:56:53 0° 23° (NNE) 2,883 6.2 -8.0°
